SWA4644 KDTW-KPHX

Flight info

Callsign SWA4644
Flight time N/A
Altitude 36000
Route KAYLN3 SMUUV OBK STJ J18 GCK CIM/N0460F380 ZUN EAGUL6
Aircraft B38M/M-SDE2E3GIJ4J7RWZ/LB1D1

Departure

Time N/A
Airport Detroit Metropolitan Wayne County Airport (KDTW)

Arrival

Time 2026-04-30 20:48
Airport Phoenix Sky Harbor International Airport (KPHX)
Time Latitude Longitude Altitude Speed Heading
2026-04-30 19:18 37.12347 -103.10692 36071 ft 353 kts 250°
2026-04-30 19:19 37.10380 -103.16340 36075 ft 354 kts 250°
2026-04-30 19:19 37.07429 -103.24800 36072 ft 353 kts 250°
2026-04-30 19:20 37.05472 -103.30396 36072 ft 353 kts 250°
2026-04-30 19:21 37.02676 -103.38912 36076 ft 352 kts 251°
2026-04-30 19:22 36.98988 -103.50263 36072 ft 352 kts 251°
2026-04-30 19:23 36.93435 -103.67254 36075 ft 351 kts 251°
2026-04-30 19:24 36.90653 -103.75732 36065 ft 351 kts 251°
2026-04-30 19:25 36.86004 -103.89842 36054 ft 351 kts 251°
2026-04-30 19:26 36.82274 -104.01113 36043 ft 351 kts 250°
2026-04-30 19:27 36.79472 -104.09552 36051 ft 351 kts 251°
2026-04-30 19:28 36.76664 -104.17988 36064 ft 351 kts 251°
2026-04-30 19:29 36.72926 -104.29178 36099 ft 351 kts 250°
2026-04-30 19:30 36.69163 -104.40398 36102 ft 350 kts 250°
2026-04-30 19:31 36.65393 -104.51597 36114 ft 351 kts 250°
2026-04-30 19:31 36.62557 -104.59997 36091 ft 351 kts 250°
2026-04-30 19:32 36.60981 -104.64652 36076 ft 351 kts 250°
2026-04-30 19:32 36.59086 -104.70244 36042 ft 351 kts 250°
2026-04-30 19:33 36.57186 -104.75837 36011 ft 351 kts 250°
2026-04-30 19:33 36.55281 -104.81432 35991 ft 351 kts 250°
2026-04-30 19:34 36.53376 -104.87021 35960 ft 351 kts 250°
2026-04-30 19:35 36.50512 -104.95403 35998 ft 351 kts 250°
2026-04-30 19:35 36.48599 -105.00987 36022 ft 351 kts 250°
2026-04-30 19:36 36.46684 -105.06568 36053 ft 351 kts 250°
2026-04-30 19:36 36.43808 -105.14933 36107 ft 353 kts 250°
2026-04-30 19:37 36.41883 -105.20514 36123 ft 351 kts 250°
2026-04-30 19:37 36.39961 -105.26081 36123 ft 351 kts 250°
2026-04-30 19:38 36.38036 -105.31642 36111 ft 350 kts 250°
2026-04-30 19:38 36.36108 -105.37205 36128 ft 351 kts 250°
2026-04-30 19:39 36.34191 -105.42726 36068 ft 351 kts 250°
2026-04-30 19:39 36.32254 -105.48292 36031 ft 352 kts 250°
2026-04-30 19:40 36.30299 -105.53900 35981 ft 353 kts 249°
2026-04-30 19:40 36.28362 -105.59445 35912 ft 353 kts 249°
2026-04-30 19:41 36.26411 -105.65024 35857 ft 353 kts 249°
2026-04-30 19:41 36.24456 -105.70602 35892 ft 354 kts 249°
2026-04-30 19:42 36.22496 -105.76184 35849 ft 353 kts 249°
2026-04-30 19:42 36.20530 -105.81774 35846 ft 354 kts 249°
2026-04-30 19:43 36.18559 -105.87368 35836 ft 354 kts 249°
2026-04-30 19:44 36.15598 -105.95750 35843 ft 355 kts 249°
2026-04-30 19:44 36.13617 -106.01346 35849 ft 355 kts 249°
2026-04-30 19:45 36.11635 -106.06935 35886 ft 355 kts 249°
2026-04-30 19:45 36.09650 -106.12522 35914 ft 355 kts 248°
2026-04-30 19:46 36.07661 -106.18111 35936 ft 355 kts 248°
2026-04-30 19:46 36.05666 -106.23704 35968 ft 356 kts 248°
2026-04-30 19:47 36.03668 -106.29299 35988 ft 355 kts 248°
2026-04-30 19:47 36.01669 -106.34884 35992 ft 355 kts 248°
2026-04-30 19:48 35.99666 -106.40471 35976 ft 359 kts 248°
2026-04-30 19:48 35.97657 -106.46066 35987 ft 357 kts 248°
2026-04-30 19:49 35.95641 -106.51670 35945 ft 356 kts 248°
2026-04-30 19:49 35.92617 -106.60055 35900 ft 356 kts 248°
2026-04-30 19:50 35.90598 -106.65639 35883 ft 357 kts 248°
2026-04-30 19:50 35.88573 -106.71234 35862 ft 358 kts 248°
2026-04-30 19:51 35.86539 -106.76842 35839 ft 358 kts 248°
2026-04-30 19:51 35.84504 -106.82440 35850 ft 358 kts 247°
2026-04-30 19:52 35.82466 -106.88039 35859 ft 359 kts 247°
2026-04-30 19:52 35.80410 -106.93675 35844 ft 361 kts 247°
2026-04-30 19:53 35.78354 -106.99305 35840 ft 360 kts 247°
2026-04-30 19:53 35.76297 -107.04925 35847 ft 360 kts 247°
2026-04-30 19:54 35.74235 -107.10549 35845 ft 360 kts 247°
2026-04-30 19:54 35.72174 -107.16159 35840 ft 360 kts 247°
2026-04-30 19:55 35.70112 -107.21765 35841 ft 359 kts 247°
2026-04-30 19:55 35.68048 -107.27365 35838 ft 360 kts 247°
2026-04-30 19:56 35.65980 -107.32964 35834 ft 360 kts 247°
2026-04-30 19:56 35.63911 -107.38559 35831 ft 360 kts 247°
2026-04-30 19:57 35.61836 -107.44156 35831 ft 360 kts 247°
2026-04-30 19:57 35.59757 -107.49756 35826 ft 360 kts 246°
2026-04-30 19:58 35.57678 -107.55348 35819 ft 360 kts 246°
2026-04-30 19:58 35.55591 -107.60949 35817 ft 361 kts 246°
2026-04-30 19:59 35.53500 -107.66552 35815 ft 361 kts 246°
2026-04-30 20:00 35.50355 -107.74961 35803 ft 361 kts 246°
2026-04-30 20:00 35.48251 -107.80576 35833 ft 363 kts 246°
2026-04-30 20:01 35.45099 -107.88965 35860 ft 362 kts 246°
2026-04-30 20:01 35.42985 -107.94581 35888 ft 364 kts 246°
2026-04-30 20:02 35.39806 -108.03005 35890 ft 363 kts 246°
2026-04-30 20:03 35.36625 -108.11413 35870 ft 362 kts 245°
2026-04-30 20:03 35.34505 -108.17007 35848 ft 362 kts 245°
2026-04-30 20:04 35.32379 -108.22603 35824 ft 363 kts 245°
2026-04-30 20:05 35.29182 -108.31003 35779 ft 362 kts 245°
2026-04-30 20:05 35.25982 -108.39387 35775 ft 363 kts 245°
2026-04-30 20:06 35.23839 -108.44992 35774 ft 364 kts 245°
2026-04-30 20:06 35.21694 -108.50591 35777 ft 364 kts 245°
2026-04-30 20:07 35.19549 -108.56179 35803 ft 364 kts 245°
2026-04-30 20:08 35.16324 -108.64567 35867 ft 366 kts 245°
2026-04-30 20:08 35.14157 -108.70189 35915 ft 366 kts 245°
2026-04-30 20:09 35.11987 -108.75809 35962 ft 366 kts 245°
2026-04-30 20:09 35.08720 -108.84254 36027 ft 367 kts 245°
2026-04-30 20:10 35.05442 -108.92703 36027 ft 367 kts 244°
2026-04-30 20:11 35.02154 -109.01156 36022 ft 368 kts 244°
2026-04-30 20:11 34.99959 -109.06787 36000 ft 368 kts 244°
2026-04-30 20:12 34.96669 -109.15257 35926 ft 368 kts 245°
2026-04-30 20:13 34.94601 -109.20970 35890 ft 369 kts 245°
2026-04-30 20:13 34.92515 -109.26689 35848 ft 369 kts 245°
2026-04-30 20:14 34.90425 -109.32408 35803 ft 370 kts 245°
2026-04-30 20:14 34.88329 -109.38131 35800 ft 370 kts 245°
2026-04-30 20:15 34.86229 -109.43852 35808 ft 370 kts 245°
2026-04-30 20:15 34.84124 -109.49579 35819 ft 371 kts 245°
2026-04-30 20:16 34.82030 -109.55266 35824 ft 371 kts 245°
2026-04-30 20:16 34.79918 -109.60991 35817 ft 371 kts 245°
2026-04-30 20:17 34.77805 -109.66717 35814 ft 371 kts 245°
2026-04-30 20:17 34.75689 -109.72442 35806 ft 371 kts 245°
2026-04-30 20:18 34.73568 -109.78170 35813 ft 372 kts 245°
2026-04-30 20:18 34.71803 -109.82929 35815 ft 371 kts 244°
2026-04-30 20:19 34.69677 -109.88656 35859 ft 372 kts 244°
2026-04-30 20:19 34.67549 -109.94380 35899 ft 372 kts 244°
2026-04-30 20:20 34.65417 -110.00101 35934 ft 372 kts 244°
2026-04-30 20:20 34.63281 -110.05826 35964 ft 373 kts 244°
2026-04-30 20:21 34.61137 -110.11563 35987 ft 373 kts 244°
2026-04-30 20:21 34.58988 -110.17300 35998 ft 374 kts 244°
2026-04-30 20:22 34.56835 -110.23039 35995 ft 374 kts 244°
2026-04-30 20:22 34.54688 -110.28755 35322 ft 370 kts 244°
2026-04-30 20:22 34.53618 -110.31599 34610 ft 371 kts 244°
2026-04-30 20:23 34.52546 -110.34445 33988 ft 370 kts 244°
2026-04-30 20:23 34.51480 -110.37273 33392 ft 367 kts 244°
2026-04-30 20:23 34.50429 -110.40061 33058 ft 357 kts 244°
2026-04-30 20:23 34.49404 -110.42773 32828 ft 356 kts 244°
2026-04-30 20:24 34.48364 -110.45524 32388 ft 360 kts 244°
2026-04-30 20:24 34.47318 -110.48288 32042 ft 361 kts 244°
2026-04-30 20:24 34.46271 -110.51053 31681 ft 360 kts 244°
2026-04-30 20:24 34.45227 -110.53806 31286 ft 359 kts 244°
2026-04-30 20:25 34.43154 -110.59270 30533 ft 355 kts 244°
2026-04-30 20:25 34.42122 -110.61985 30153 ft 353 kts 244°
2026-04-30 20:26 34.40075 -110.67365 29330 ft 350 kts 244°
2026-04-30 20:26 34.38039 -110.72708 28575 ft 349 kts 244°
2026-04-30 20:26 34.37023 -110.75371 28201 ft 348 kts 244°
2026-04-30 20:27 34.34663 -110.80387 27364 ft 344 kts 228°
2026-04-30 20:27 34.31411 -110.84674 26654 ft 347 kts 229°
2026-04-30 20:28 34.28138 -110.88957 25914 ft 347 kts 228°
2026-04-30 20:28 34.24848 -110.93218 25189 ft 346 kts 228°
2026-04-30 20:29 34.21555 -110.97472 24469 ft 347 kts 228°
2026-04-30 20:30 34.16596 -111.03865 23372 ft 348 kts 228°
2026-04-30 20:30 34.11684 -111.10187 22130 ft 341 kts 228°
2026-04-30 20:31 34.06916 -111.16312 21102 ft 329 kts 227°
2026-04-30 20:32 34.02207 -111.22350 20044 ft 329 kts 227°
2026-04-30 20:32 33.99074 -111.26362 19324 ft 327 kts 227°
2026-04-30 20:33 33.97514 -111.28358 18972 ft 326 kts 227°
2026-04-30 20:33 33.94439 -111.32289 18261 ft 323 kts 227°
2026-04-30 20:33 33.92900 -111.34254 17871 ft 322 kts 227°
2026-04-30 20:34 33.89816 -111.38190 17118 ft 319 kts 227°
2026-04-30 20:34 33.87071 -111.42279 16308 ft 317 kts 238°
2026-04-30 20:35 33.85904 -111.44526 15937 ft 316 kts 238°
2026-04-30 20:35 33.84735 -111.46761 15556 ft 316 kts 238°
2026-04-30 20:35 33.82395 -111.51223 14763 ft 315 kts 238°
2026-04-30 20:36 33.81224 -111.53453 14367 ft 315 kts 238°
2026-04-30 20:36 33.80051 -111.55683 13974 ft 316 kts 238°
2026-04-30 20:36 33.77700 -111.60107 13339 ft 310 kts 238°
2026-04-30 20:37 33.76546 -111.62275 13081 ft 305 kts 238°
2026-04-30 20:37 33.75408 -111.64411 12824 ft 301 kts 238°
2026-04-30 20:37 33.74290 -111.66510 12570 ft 296 kts 238°
2026-04-30 20:37 33.73189 -111.68574 12320 ft 291 kts 238°
2026-04-30 20:38 33.72105 -111.70606 12076 ft 286 kts 238°
2026-04-30 20:38 33.71040 -111.72603 11836 ft 282 kts 238°
2026-04-30 20:38 33.69992 -111.74577 11577 ft 278 kts 238°
2026-04-30 20:39 33.67942 -111.78443 11114 ft 272 kts 238°
2026-04-30 20:39 33.66921 -111.80366 10892 ft 273 kts 238°
2026-04-30 20:39 33.65903 -111.82282 10653 ft 271 kts 238°
2026-04-30 20:40 33.63897 -111.86056 10181 ft 264 kts 238°
2026-04-30 20:40 33.62916 -111.87900 9965 ft 260 kts 238°
2026-04-30 20:40 33.61951 -111.89714 9731 ft 257 kts 238°
2026-04-30 20:41 33.60025 -111.93332 9078 ft 257 kts 238°
2026-04-30 20:41 33.59066 -111.95133 8784 ft 255 kts 238°
2026-04-30 20:41 33.58114 -111.96921 8496 ft 254 kts 238°
2026-04-30 20:41 33.57167 -111.98698 8225 ft 252 kts 238°
2026-04-30 20:42 33.56230 -112.00454 8001 ft 248 kts 238°
2026-04-30 20:42 33.55307 -112.02185 7749 ft 245 kts 238°
2026-04-30 20:42 33.53483 -112.05599 7197 ft 242 kts 238°
2026-04-30 20:43 33.52717 -112.07361 7009 ft 235 kts 257°
2026-04-30 20:43 33.52606 -112.09265 6990 ft 233 kts 269°
2026-04-30 20:43 33.52585 -112.11239 6970 ft 234 kts 269°
2026-04-30 20:44 33.52262 -112.15057 6615 ft 238 kts 244°
2026-04-30 20:44 33.51202 -112.16631 5954 ft 253 kts 216°
2026-04-30 20:44 33.47710 -112.18219 4517 ft 284 kts 207°
2026-04-30 20:45 33.43903 -112.18495 3680 ft 289 kts 150°
2026-04-30 20:45 33.42545 -112.16771 3404 ft 289 kts 116°
2026-04-30 20:45 33.42233 -112.14430 3107 ft 289 kts 81°
2026-04-30 20:46 33.44032 -112.07892 2190 ft 261 kts 82°
2026-04-30 20:46 33.44124 -112.05870 1923 ft 223 kts 91°
2026-04-30 20:47 33.44094 -112.02657 1158 ft 168 kts 91°
2026-04-30 20:47 33.44083 -112.01403 1135 ft 119 kts 90°
2026-04-30 20:48 33.43998 -112.00654 1137 ft 35 kts 114°
2026-04-30 20:48 33.43975 -112.00363 1136 ft 36 kts 90°
2026-04-30 20:48 33.43922 -112.00086 1135 ft 36 kts 146°
2026-04-30 20:48 33.43788 -112.00110 1136 ft 14 kts 263°
2026-04-30 20:49 33.43788 -112.00118 1134 ft 0 kts 263°